TimeCST,TemperatureF,Dew PointF,Humidity,Sea Level PressureIn,VisibilityMPH,Wind Direction,Wind SpeedMPH,Gust SpeedMPH,PrecipitationIn,Events,Conditions,WindDirDegrees,DateUTC
12:10 AM,6.8,5.0,92,30.06,10.0,West,3.5,-,N/A,,Overcast,260,2013-02-06 06:10:00
12:25 AM,8.6,6.8,92,30.06,10.0,WSW,3.5,-,N/A,,Overcast,250,2013-02-06 06:25:00
12:45 AM,8.6,6.8,92,30.06,10.0,Calm,Calm,-,N/A,,Overcast,0,2013-02-06 06:45:00
1:05 AM,8.6,6.8,92,30.06,10.0,WSW,3.5,-,N/A,,Overcast,250,2013-02-06 07:05:00
1:25 AM,8.6,6.8,92,30.06,10.0,Calm,Calm,-,N/A,,Overcast,0,2013-02-06 07:25:00
2:05 AM,8.6,6.8,92,30.06,10.0,Calm,Calm,-,N/A,,Scattered Clouds,0,2013-02-06 08:05:00
2:30 AM,6.8,5.0,92,30.06,10.0,Calm,Calm,-,N/A,,Overcast,0,2013-02-06 08:30:00
2:43 AM,8.2,6.3,92,30.05,10.0,Calm,Calm,-,N/A,,Scattered Clouds,0,2013-02-06 08:43:00
2:49 AM,8.6,6.6,92,30.05,10.0,Calm,Calm,-,N/A,,Scattered Clouds,0,2013-02-06 08:49:00
3:08 AM,6.3,4.1,91,30.04,10.0,Calm,Calm,-,N/A,,Clear,0,2013-02-06 09:08:00
3:28 AM,4.1,1.9,91,30.03,10.0,ESE,3.5,-,N/A,,Clear,110,2013-02-06 09:28:00
3:49 AM,5.2,3.2,92,30.02,10.0,Calm,Calm,-,N/A,,Mostly Cloudy,0,2013-02-06 09:49:00
4:08 AM,6.6,4.8,92,30.02,10.0,SE,3.5,-,N/A,,Overcast,140,2013-02-06 10:08:00
4:28 AM,8.1,6.3,92,30.03,10.0,Calm,Calm,-,N/A,,Overcast,0,2013-02-06 10:28:00
4:48 AM,9.1,7.3,92,30.04,10.0,Calm,Calm,-,N/A,,Mostly Cloudy,0,2013-02-06 10:48:00
5:08 AM,9.1,7.2,92,30.05,10.0,Calm,Calm,-,N/A,,Mostly Cloudy,0,2013-02-06 11:08:00
5:28 AM,9.1,7.2,92,30.05,10.0,Calm,Calm,-,N/A,,Scattered Clouds,0,2013-02-06 11:28:00
5:48 AM,9.1,6.8,90,30.03,10.0,ESE,3.5,-,N/A,,Mostly Cloudy,110,2013-02-06 11:48:00
6:08 AM,9.1,6.8,90,30.02,10.0,ESE,5.8,-,N/A,,Overcast,120,2013-02-06 12:08:00
6:28 AM,9.3,7.0,90,30.01,10.0,SE,5.8,-,N/A,,Mostly Cloudy,130,2013-02-06 12:28:00
7:08 AM,11.7,9.1,90,30.02,10.0,SE,4.6,-,N/A,,Overcast,130,2013-02-06 13:08:00
7:29 AM,13.3,10.6,89,30.02,10.0,ESE,5.8,-,N/A,,Overcast,120,2013-02-06 13:29:00
7:48 AM,14.0,11.3,89,30.02,10.0,SE,4.6,-,N/A,,Overcast,130,2013-02-06 13:48:00
8:08 AM,14.0,11.3,89,30.02,10.0,ESE,6.9,-,N/A,,Overcast,120,2013-02-06 14:08:00
8:29 AM,15.3,12.6,89,30.00,10.0,East,8.1,-,N/A,,Overcast,100,2013-02-06 14:29:00
8:48 AM,16.7,13.6,88,30.01,10.0,ESE,6.9,-,N/A,,Overcast,120,2013-02-06 14:48:00
9:08 AM,16.7,13.8,88,30.00,1.8,ESE,9.2,-,N/A,Snow,Light Snow,110,2013-02-06 15:08:00
9:28 AM,16.7,14.0,89,29.99,5.0,East,10.4,-,N/A,,Overcast,100,2013-02-06 15:28:00
9:49 AM,18.0,14.9,88,29.98,10.0,ESE,9.2,-,N/A,,Overcast,110,2013-02-06 15:49:00
10:08 AM,19.2,15.8,87,29.98,10.0,ESE,10.4,-,N/A,,Mostly Cloudy,120,2013-02-06 16:08:00
10:28 AM,19.2,15.4,85,29.97,10.0,East,11.5,-,N/A,,Mostly Cloudy,100,2013-02-06 16:28:00
10:43 AM,19.9,16.0,85,29.96,10.0,ESE,13.8,-,N/A,,Overcast,110,2013-02-06 16:43:00
11:08 AM,21.7,17.6,84,29.96,10.0,SE,11.5,-,N/A,,Overcast,130,2013-02-06 17:08:00
11:28 AM,21.7,17.6,84,29.94,10.0,ESE,13.8,-,N/A,,Overcast,120,2013-02-06 17:28:00
11:48 AM,22.1,18.3,85,29.93,10.0,ESE,12.7,-,N/A,,Mostly Cloudy,110,2013-02-06 17:48:00
12:07 PM,22.3,18.3,85,29.90,10.0,East,15.0,-,N/A,,Mostly Cloudy,100,2013-02-06 18:07:00
12:28 PM,24.3,19.9,84,29.90,10.0,East,10.4,13.8,N/A,,Overcast,90,2013-02-06 18:28:00
12:48 PM,24.3,19.8,83,29.91,10.0,East,8.1,-,N/A,,Scattered Clouds,100,2013-02-06 18:48:00
1:07 PM,26.6,22.1,83,29.91,10.0,East,9.2,-,N/A,,Clear,100,2013-02-06 19:07:00
1:29 PM,26.6,22.5,84,29.90,10.0,East,8.1,-,N/A,,Clear,90,2013-02-06 19:29:00
1:48 PM,27.0,22.5,83,29.89,10.0,East,9.2,-,N/A,,Clear,80,2013-02-06 19:48:00
2:08 PM,29.3,24.8,83,29.88,10.0,East,6.9,-,N/A,,Clear,90,2013-02-06 20:08:00
2:28 PM,29.3,25.2,85,29.86,10.0,East,8.1,-,N/A,,Clear,90,2013-02-06 20:28:00
2:48 PM,29.3,25.3,85,29.85,7.0,East,10.4,-,N/A,,Clear,90,2013-02-06 20:48:00
3:08 PM,29.3,25.3,85,29.86,10.0,East,10.4,-,N/A,,Clear,80,2013-02-06 21:08:00
3:27 PM,29.3,25.0,84,29.86,10.0,ENE,9.2,-,N/A,,Clear,70,2013-02-06 21:27:00
3:48 PM,29.3,24.8,83,29.87,10.0,ENE,10.4,-,N/A,,Clear,70,2013-02-06 21:48:00
4:09 PM,29.3,24.8,83,29.86,10.0,East,10.4,-,N/A,,Clear,80,2013-02-06 22:09:00
4:46 PM,29.3,25.2,85,29.86,10.0,ENE,9.2,-,N/A,,Clear,70,2013-02-06 22:46:00
5:08 PM,28.9,24.8,84,29.87,7.0,ENE,8.1,-,N/A,,Clear,70,2013-02-06 23:08:00
5:27 PM,26.6,23.0,86,29.87,7.0,ENE,9.2,-,N/A,,Clear,70,2013-02-06 23:27:00
5:48 PM,26.6,23.4,88,29.87,7.0,ENE,9.2,-,N/A,,Clear,60,2013-02-06 23:48:00
6:08 PM,26.6,23.5,88,29.88,7.0,ENE,10.4,-,N/A,,Clear,60,2013-02-07 00:08:00
6:28 PM,26.6,23.7,89,29.89,7.0,ENE,9.2,-,N/A,,Clear,70,2013-02-07 00:28:00
6:48 PM,26.6,23.7,89,29.89,7.0,ENE,8.1,-,N/A,,Clear,70,2013-02-07 00:48:00
7:08 PM,26.6,23.9,90,29.89,7.0,NE,9.2,-,N/A,,Clear,50,2013-02-07 01:08:00
7:29 PM,24.3,21.7,90,29.91,7.0,NE,8.1,-,N/A,,Clear,50,2013-02-07 01:29:00
7:48 PM,23.5,21.2,91,29.91,7.0,NE,9.2,-,N/A,,Clear,50,2013-02-07 01:48:00
8:08 PM,22.8,20.5,91,29.91,7.0,NE,9.2,-,N/A,,Clear,50,2013-02-07 02:08:00
8:28 PM,21.9,19.8,91,29.91,7.0,NE,9.2,-,N/A,,Clear,50,2013-02-07 02:28:00
8:48 PM,21.7,19.4,91,29.91,7.0,ENE,8.1,-,N/A,,Clear,60,2013-02-07 02:48:00
9:08 PM,20.8,18.9,92,29.92,5.0,NE,6.9,-,N/A,,Clear,40,2013-02-07 03:08:00
9:28 PM,21.6,19.8,93,29.93,5.0,NNE,6.9,-,N/A,,Clear,30,2013-02-07 03:28:00
9:48 PM,20.7,18.9,93,29.93,5.0,NNE,8.1,-,N/A,,Clear,30,2013-02-07 03:48:00
10:08 PM,20.3,18.5,93,29.94,5.0,NNE,9.2,-,N/A,,Clear,30,2013-02-07 04:08:00
10:28 PM,19.2,17.4,93,29.94,5.0,NE,8.1,-,N/A,,Clear,40,2013-02-07 04:28:00
10:48 PM,19.2,17.4,93,29.94,5.0,NNE,8.1,-,N/A,,Clear,20,2013-02-07 04:48:00
11:08 PM,19.2,17.6,93,29.94,5.0,NNE,10.4,-,N/A,,Clear,20,2013-02-07 05:08:00
11:28 PM,19.2,17.6,93,29.94,5.0,NE,11.5,-,N/A,,Clear,40,2013-02-07 05:28:00
11:48 PM,20.3,18.9,94,29.96,5.0,North,8.1,-,N/A,,Scattered Clouds,10,2013-02-07 05:48:00